,,PA_Meas_PMT16A,,PR_Meas_QMR101_102,,RH_Meas_QMH101,,SR_Meas_QMS101,,TA_Meas_QMH101,,GenWind,,GenWind,
time,status,PA,status,PR,status,RH,status,SR,status,TA,status,DirAvg,status,SpdAvg,
2016-08-26, 14:52:04,VALID,918.099,VALID,0,INVALID,112.468,VALID,118.937,VALID,20.2114,VALID,306,VALID,0,
2016-08-26, 14:53:04,VALID,918.123,VALID,0,INVALID,112.529,VALID,125.491,VALID,20.2114,VALID,144,VALID,0,
2016-08-26, 14:54:04,VALID,918.182,VALID,0,INVALID,113.52,VALID,125.169,VALID,20.2714,VALID,52,VALID,0.0121094,
2016-08-26, 14:55:04,VALID,918.205,VALID,0,INVALID,113.513,VALID,117.97,VALID,20.2504,VALID,134,VALID,0.333203,
2016-08-26, 14:56:04,VALID,918.249,VALID,0,INVALID,113.764,VALID,102.821,VALID,20.2699,VALID,115,VALID,0,
2016-08-26, 15:04:04,VALID,918.296,VALID,0,INVALID,113.406,VALID,131.723,VALID,20.33,VALID,109,VALID,0,
2016-08-26, 15:05:04,VALID,918.311,VALID,0,INVALID,114.275,VALID,131.293,VALID,20.3479,VALID,108,VALID,0,
2016-08-26, 15:09:04,VALID,918.329,VALID,0,INVALID,113.04,VALID,129.252,VALID,20.4845,VALID,354,VALID,1.08945,
2016-08-26, 15:10:04,VALID,918.301,VALID,0,INVALID,112.384,VALID,134.946,VALID,20.4454,VALID,66,VALID,1.59258,
2016-08-26, 15:11:04,VALID,918.309,VALID,0,INVALID,112.918,VALID,132.582,VALID,20.504,VALID,30,VALID,0.907812,
2016-08-26, 15:12:04,VALID,918.275,VALID,0,INVALID,112.621,VALID,117.863,VALID,20.504,VALID,50,VALID,1.2082,
2016-08-26, 15:13:04,VALID,918.308,VALID,0,INVALID,113.154,VALID,110.987,VALID,20.543,VALID,14,VALID,0.251172,
2016-08-26, 15:14:04,VALID,918.338,VALID,0,INVALID,111.957,VALID,99.8128,VALID,20.543,VALID,46,VALID,0.00742187,
2016-08-26, 15:15:04,VALID,918.372,VALID,0,INVALID,111.21,VALID,115.929,VALID,20.5219,VALID,356,VALID,0,
2016-08-26, 15:16:04,VALID,918.337,VALID,0,INVALID,112.796,VALID,124.632,VALID,20.621,VALID,41,VALID,0,
2016-08-26, 15:17:04,VALID,918.328,VALID,0,INVALID,112.598,VALID,143.434,VALID,20.621,VALID,32,VALID,0,
2016-08-26, 15:18:04,VALID,918.378,VALID,0,INVALID,112.758,VALID,122.375,VALID,20.639,VALID,29,VALID,0,
2016-08-26, 15:19:04,VALID,918.413,VALID,0,INVALID,112.148,VALID,131.186,VALID,20.6795,VALID,45,VALID,0,
2016-08-26, 15:20:04,VALID,918.352,VALID,0,INVALID,112.24,VALID,176.956,VALID,20.717,VALID,45,VALID,0,
2016-08-26, 15:21:04,VALID,918.341,VALID,0,INVALID,112.796,VALID,185.551,VALID,20.795,VALID,45,VALID,0,
2016-08-26, 15:22:04,VALID,918.334,VALID,0,INVALID,113.253,VALID,188.022,VALID,20.8535,VALID,45,VALID,0,
2016-08-26, 15:23:04,VALID,918.311,VALID,0,INVALID,111.409,VALID,173.088,VALID,20.8746,VALID,300,VALID,0,
2016-08-26, 15:24:04,VALID,918.331,VALID,0,INVALID,111.973,VALID,166.641,VALID,20.9316,VALID,24,VALID,0,
2016-08-26, 15:25:04,VALID,918.315,VALID,0,INVALID,111.363,VALID,164.385,VALID,20.9917,VALID,10,VALID,0,
2016-08-26, 15:26:04,VALID,918.335,VALID,0,INVALID,111.233,VALID,174.914,VALID,21.0307,VALID,314,VALID,0,
2016-08-26, 15:27:04,VALID,918.359,VALID,0,INVALID,111.805,VALID,181.576,VALID,21.0876,VALID,314,VALID,0,
2016-08-26, 15:28:04,VALID,918.333,VALID,0,INVALID,111.576,VALID,205.32,VALID,21.1868,VALID,314,VALID,0,
2016-08-26, 15:29:04,VALID,918.345,VALID,0,VALID,104,VALID,212.196,VALID,21.2258,VALID,309,VALID,0,
2016-08-26, 15:30:04,VALID,918.331,VALID,0,INVALID,109.472,VALID,212.196,VALID,21.3429,VALID,320,VALID,0,
2016-08-26, 15:31:04,VALID,918.323,VALID,0,INVALID,110.021,VALID,208.328,VALID,21.3803,VALID,321,VALID,0,
2016-08-26, 15:32:04,VALID,918.328,VALID,0,INVALID,111.584,VALID,210.047,VALID,21.4778,VALID,341,VALID,0,
2016-08-26, 15:33:04,VALID,918.315,VALID,0,INVALID,111.142,VALID,212.411,VALID,21.5168,VALID,6,VALID,0,
2016-08-26, 15:34:04,VALID,918.318,VALID,0,INVALID,110.364,VALID,218.858,VALID,21.5559,VALID,6,VALID,0,
2016-08-26, 15:35:04,VALID,918.357,VALID,0,VALID,104,VALID,225.949,VALID,21.5737,VALID,6,VALID,0,
2016-08-26, 15:36:04,VALID,918.33,VALID,0,VALID,103.953,VALID,236.478,VALID,21.6339,VALID,6,VALID,0,
2016-08-26, 15:37:04,VALID,918.278,VALID,0,VALID,104,VALID,245.073,VALID,21.712,VALID,3,VALID,0,
2016-08-26, 15:38:04,VALID,918.274,VALID,0,VALID,104,VALID,251.95,VALID,21.7705,VALID,3,VALID,0,
2016-08-26, 15:39:04,VALID,918.272,VALID,0,VALID,94.7591,VALID,253.346,VALID,21.751,VALID,270,VALID,0,
2016-08-26, 15:40:04,VALID,918.316,VALID,0,VALID,99.0282,VALID,246.685,VALID,21.7883,VALID,270,VALID,0,
2016-08-26, 15:41:04,VALID,918.287,VALID,0,VALID,92.3348,VALID,241.313,VALID,21.8681,VALID,270,VALID,0,
2016-08-26, 15:42:04,VALID,918.29,VALID,0,VALID,94.0272,VALID,229.924,VALID,21.9656,VALID,270,VALID,0,
2016-08-26, 15:43:04,VALID,918.342,VALID,0,VALID,95.2775,VALID,220.469,VALID,22.0632,VALID,270,VALID,0,
2016-08-26, 15:44:04,VALID,918.336,VALID,0,VALID,87.6998,VALID,218.965,VALID,22.081,VALID,271,VALID,0,
2016-08-26, 15:45:04,VALID,918.325,VALID,0,VALID,94.1492,VALID,236.908,VALID,22.1591,VALID,347,VALID,0,
2016-08-26, 15:46:04,VALID,918.322,VALID,0,VALID,85.9616,VALID,249.371,VALID,22.1217,VALID,5,VALID,0,
2016-08-26, 15:47:04,VALID,918.329,VALID,0,VALID,94.7057,VALID,257.107,VALID,22.1201,VALID,334,VALID,0,
2016-08-26, 15:48:04,VALID,918.32,VALID,0,VALID,94.0806,VALID,260.975,VALID,22.1396,VALID,10,VALID,0,
2016-08-26, 15:49:04,VALID,918.321,VALID,0,VALID,85.1917,VALID,271.934,VALID,22.1786,VALID,18,VALID,0,
2016-08-26, 15:50:04,VALID,918.331,VALID,0,VALID,89.9029,VALID,281.926,VALID,22.1981,VALID,13,VALID,0,
2016-08-26, 15:51:04,VALID,918.358,VALID,0,VALID,89.2092,VALID,276.446,VALID,22.2567,VALID,4,VALID,0,
2016-08-26, 15:52:04,VALID,918.352,VALID,0,VALID,97.816,VALID,260.76,VALID,22.2957,VALID,8,VALID,0,
2016-08-26, 15:53:04,VALID,918.4,VALID,0,VALID,87.2271,VALID,243.891,VALID,22.2567,VALID,332,VALID,0,
2016-08-26, 15:54:04,VALID,918.382,VALID,0,VALID,88.8967,VALID,229.817,VALID,22.2779,VALID,358,VALID,0,
2016-08-26, 15:55:04,VALID,918.398,VALID,0,VALID,86.8002,VALID,206.502,VALID,22.2779,VALID,360,VALID,0,
2016-08-26, 15:56:04,VALID,918.372,VALID,0,VALID,90.5586,VALID,176.526,VALID,22.2779,VALID,3,VALID,0,
2016-08-26, 15:57:04,VALID,918.381,VALID,0,VALID,98.3878,VALID,184.906,VALID,22.3559,VALID,3,VALID,0,
2016-08-26, 15:58:04,VALID,918.391,VALID,0,VALID,89.6666,VALID,204.138,VALID,22.395,VALID,8,VALID,0,
2016-08-26, 15:59:04,VALID,918.403,VALID,0,VALID,85.6872,VALID,197.799,VALID,22.3933,VALID,354,VALID,0,
2016-08-26, 16:00:04,VALID,918.411,VALID,0,VALID,82.9123,VALID,200.163,VALID,22.2957,VALID,299,VALID,0,
2016-08-26, 16:01:04,VALID,918.386,VALID,0,VALID,88.0047,VALID,198.444,VALID,22.2762,VALID,338,VALID,0,
2016-08-26, 16:02:04,VALID,918.422,VALID,0,VALID,89.781,VALID,183.402,VALID,22.2762,VALID,44,VALID,0,
2016-08-26, 16:03:04,VALID,918.405,VALID,0,VALID,87.6388,VALID,148.376,VALID,22.2762,VALID,44,VALID,0,
2016-08-26, 16:04:04,VALID,918.409,VALID,0,VALID,85.9235,VALID,130.004,VALID,22.3169,VALID,44,VALID,0,
2016-08-26, 16:05:04,VALID,918.449,VALID,0,VALID,85.0545,VALID,152.029,VALID,22.2957,VALID,44,VALID,0,
2016-08-26, 16:06:04,VALID,918.424,VALID,0,VALID,90.7949,VALID,134.946,VALID,22.2762,VALID,33,VALID,0,
2016-08-26, 16:07:04,VALID,918.448,VALID,0,VALID,88.607,VALID,98.8459,VALID,22.2193,VALID,31,VALID,0,
2016-08-26, 16:08:04,VALID,918.463,VALID,0,VALID,86.7087,VALID,84.4487,VALID,22.1786,VALID,34,VALID,0,
2016-08-26, 16:09:04,VALID,918.465,VALID,0,VALID,89.4455,VALID,89.391,VALID,22.1396,VALID,31,VALID,0,
2016-08-26, 16:10:04,VALID,918.448,VALID,0,VALID,87.311,VALID,92.6143,VALID,22.0632,VALID,357,VALID,0,
2016-08-26, 16:11:04,VALID,918.405,VALID,0,VALID,93.2268,VALID,91.4324,VALID,21.9444,VALID,32,VALID,0,
2016-08-26, 16:12:04,VALID,918.444,VALID,0,VALID,99.8744,VALID,131.078,VALID,21.8664,VALID,2,VALID,0,
2016-08-26, 16:13:04,VALID,918.434,VALID,0,VALID,104,VALID,223.048,VALID,21.7883,INVALID,360,INVALID,0,
2016-08-26, 16:14:04,VALID,918.398,VALID,0,VALID,103.953,VALID,352.192,VALID,21.7493,VALID,337,VALID,0,
2016-08-26, 16:15:04,VALID,918.417,VALID,0,VALID,104,VALID,290.091,VALID,21.8079,VALID,18,VALID,0,
2016-08-26, 16:16:04,VALID,918.416,VALID,0,INVALID,109.617,VALID,333.605,VALID,21.9249,VALID,19,VALID,0,
2016-08-26, 16:17:04,VALID,918.449,VALID,0,VALID,104,VALID,361.325,VALID,22.0598,VALID,16,VALID,0,
2016-08-26, 16:18:04,VALID,918.465,VALID,0,VALID,102.939,VALID,361.002,VALID,22.1786,VALID,21,VALID,0,
2016-08-26, 16:19:04,VALID,918.478,VALID,0,VALID,98.5403,VALID,230.998,VALID,22.3737,VALID,22,VALID,0,
2016-08-26, 16:20:04,VALID,918.517,VALID,0,VALID,88.0352,VALID,191.03,VALID,22.4713,VALID,25,VALID,0,
2016-08-26, 16:21:04,VALID,918.494,VALID,0,VALID,85.3441,VALID,226.808,VALID,22.5281,VALID,27,VALID,0.336719,
2016-08-26, 16:22:04,VALID,918.521,VALID,0,VALID,84.8105,VALID,260.76,VALID,22.4908,VALID,328,VALID,0,
2016-08-26, 16:23:04,VALID,918.568,VALID,0,VALID,87.3796,VALID,214.775,VALID,22.5299,VALID,327,VALID,0,
2016-08-26, 16:24:04,VALID,918.588,VALID,0,VALID,86.2666,VALID,155.36,VALID,22.5884,VALID,13,VALID,0.40625,
2016-08-26, 16:25:04,VALID,918.617,VALID,0,VALID,84.1549,VALID,158.583,VALID,22.5494,VALID,308,VALID,0,
2016-08-26, 16:26:04,VALID,918.633,VALID,0,VALID,83.8042,VALID,209.51,VALID,22.5299,VALID,310,VALID,0,
2016-08-26, 16:27:04,VALID,918.67,VALID,0,VALID,84.6657,VALID,200.7,VALID,22.4713,VALID,295,VALID,0,
2016-08-26, 16:28:04,VALID,918.682,VALID,0,VALID,83.3849,VALID,168.575,VALID,22.3737,VALID,348,VALID,0.965625,
2016-08-26, 16:29:04,VALID,918.63,VALID,0,VALID,85.428,VALID,158.153,VALID,22.2176,VALID,317,VALID,0.725391,
2016-08-26, 16:30:04,VALID,918.688,VALID,0,VALID,97.9761,VALID,159.658,VALID,22.0794,VALID,12,VALID,0,
2016-08-26, 16:31:04,VALID,918.72,VALID,0,VALID,101.17,VALID,183.509,VALID,22.0794,VALID,15,VALID,0,
2016-08-26, 16:32:04,VALID,918.7,VALID,0,VALID,103.076,VALID,207.791,VALID,22.1201,VALID,20,VALID,0,
2016-08-26, 16:33:04,VALID,918.719,VALID,0,VALID,103.046,VALID,195.973,VALID,22.1981,VALID,19,VALID,0,
2016-08-26, 16:34:04,VALID,918.749,VALID,0,VALID,104,VALID,160.195,VALID,22.2745,VALID,15,VALID,0,
2016-08-26, 16:35:04,VALID,918.744,VALID,0,VALID,103.991,VALID,147.946,VALID,22.3542,VALID,27,VALID,0,
2016-08-26, 16:36:04,VALID,918.765,VALID,0,VALID,97.1223,VALID,160.41,VALID,22.3737,VALID,35,VALID,0,
2016-08-26, 16:37:04,VALID,918.795,VALID,0,VALID,93.3106,VALID,164.492,VALID,22.3525,VALID,7,VALID,0,
2016-08-26, 16:38:04,VALID,918.805,VALID,0,VALID,93.9815,VALID,173.517,VALID,22.3135,VALID,14,VALID,0,
2016-08-26, 16:39:04,VALID,918.808,VALID,0,VALID,97.8313,VALID,203.064,VALID,22.3347,VALID,15,VALID,0,
2016-08-26, 16:40:04,VALID,918.79,VALID,0,VALID,89.8343,VALID,206.502,VALID,22.372,VALID,12,VALID,0,
2016-08-26, 16:41:04,VALID,918.793,VALID,0,VALID,90.9016,VALID,155.79,VALID,22.4306,VALID,333,VALID,0,
2016-08-26, 16:42:04,VALID,918.809,VALID,0,VALID,91.0541,VALID,112.598,VALID,22.4518,VALID,272,VALID,0,
2016-08-26, 16:43:04,VALID,918.807,VALID,0,VALID,92.6245,VALID,124.632,VALID,22.3933,VALID,8,VALID,0,
2016-08-26, 16:44:04,VALID,918.824,VALID,0,VALID,91.9079,VALID,102.606,VALID,22.372,VALID,17,VALID,0,
2016-08-26, 16:45:04,VALID,918.845,VALID,0,VALID,91.8012,VALID,89.7134,VALID,22.3933,VALID,18,VALID,0,
2016-08-26, 16:46:04,VALID,918.848,VALID,0,VALID,94.5761,VALID,100.457,VALID,22.4111,VALID,18,VALID,0,
2016-08-26, 16:47:04,VALID,918.828,VALID,0,VALID,93.6613,VALID,121.194,VALID,22.3737,VALID,15,VALID,0,
2016-08-26, 16:48:04,VALID,918.823,VALID,0,VALID,92.0375,VALID,124.524,VALID,22.2354,VALID,254,VALID,0,
2016-08-26, 16:49:04,VALID,918.771,VALID,0,VALID,96.2304,VALID,121.623,VALID,22.0794,VALID,301,VALID,0,
2016-08-26, 16:50:04,VALID,918.751,VALID,0,VALID,103.778,VALID,80.0437,VALID,22.0208,VALID,256,VALID,0,
2016-08-26, 16:51:04,VALID,918.686,VALID,0,VALID,100.789,VALID,60.8117,VALID,21.8859,VALID,274,VALID,0.0417969,
2016-08-26, 16:52:04,VALID,918.724,VALID,0,VALID,104,VALID,46.8443,VALID,21.7867,VALID,214,VALID,0.0207031,
2016-08-26, 16:54:04,VALID,918.778,VALID,0.2,VALID,104,VALID,44.6955,VALID,21.5932,VALID,246,VALID,1.22969,
2016-08-26, 16:55:04,VALID,918.858,VALID,0,INVALID,110.959,VALID,58.6629,VALID,21.4941,VALID,358,VALID,1.03086,
2016-08-26, 16:56:04,VALID,918.873,VALID,0,INVALID,111.957,VALID,71.7707,VALID,21.4372,VALID,280,VALID,0,
2016-08-26, 16:57:04,VALID,918.883,VALID,0.2,INVALID,112.476,VALID,58.5554,VALID,21.3006,VALID,245,VALID,0.441797,
2016-08-26, 16:58:04,VALID,918.843,VALID,0,INVALID,112.339,VALID,50.9271,VALID,21.1445,VALID,246,VALID,2.49883,
2016-08-26, 16:59:04,VALID,918.898,VALID,0,INVALID,113.299,VALID,68.8698,VALID,21.0064,VALID,350,VALID,2.47656,
2016-08-26, 17:00:04,VALID,918.821,VALID,0,INVALID,114.816,VALID,72.4153,VALID,20.969,VALID,15,VALID,3.30547,
2016-08-26, 17:01:04,VALID,918.895,VALID,0,INVALID,114.397,VALID,63.1754,VALID,20.8714,VALID,277,VALID,0.720312,
2016-08-26, 17:02:04,VALID,918.965,VALID,0,INVALID,114.671,VALID,58.5554,VALID,20.8309,VALID,42,VALID,0.804297,
2016-08-26, 17:03:04,VALID,918.84,VALID,0,INVALID,114.946,VALID,51.2494,VALID,20.7934,VALID,234,VALID,0.953125,
2016-08-26, 17:04:04,VALID,918.936,VALID,0,INVALID,115.472,VALID,45.1253,VALID,20.7544,VALID,357,VALID,2.40039,
2016-08-26, 17:05:04,VALID,918.942,VALID,0,INVALID,115.426,VALID,46.9518,VALID,20.717,VALID,84,VALID,0.971484,
2016-08-26, 17:06:04,VALID,918.947,VALID,0,INVALID,115.967,VALID,52.0015,VALID,20.7154,VALID,41,VALID,0.189844,
2016-08-26, 17:07:04,VALID,919.039,VALID,0,INVALID,116.188,VALID,123.02,VALID,20.717,VALID,45,VALID,1.71875,
2016-08-26, 17:08:04,VALID,919.002,VALID,0,INVALID,116.41,VALID,122.805,VALID,20.6764,VALID,353,VALID,0.815625,
2016-08-26, 17:09:04,VALID,918.875,VALID,0,INVALID,116.654,VALID,91.325,VALID,20.6585,VALID,21,VALID,2.79883,
2016-08-26, 17:10:04,VALID,919.013,VALID,0,INVALID,116.654,VALID,107.441,VALID,20.5999,VALID,243,VALID,3.92344,
2016-08-26, 17:11:04,VALID,918.951,VALID,0,INVALID,116.692,VALID,105.83,VALID,20.5609,VALID,327,VALID,2.39883,
2016-08-26, 17:12:04,VALID,918.989,VALID,0,INVALID,116.547,VALID,131.186,VALID,20.5219,VALID,77,VALID,1.61836,
2016-08-26, 17:13:04,VALID,919.009,VALID,0,INVALID,116.623,VALID,103.788,VALID,20.5804,VALID,81,VALID,0.278125,
2016-08-26, 17:14:04,VALID,919.02,VALID,0,INVALID,116.6,VALID,93.4738,VALID,20.5999,VALID,181,VALID,1.06172,
2016-08-26, 17:15:04,VALID,919.076,VALID,0,INVALID,116.516,VALID,103.573,VALID,20.5789,VALID,53,VALID,1.90586,
2016-08-26, 17:16:04,VALID,919.044,VALID,0.2,INVALID,116.707,VALID,124.524,VALID,20.639,VALID,32,VALID,1.05586,
2016-08-26, 17:17:04,VALID,919.088,VALID,0,INVALID,116.844,VALID,111.846,VALID,20.6194,VALID,187,VALID,1.46641,
2016-08-26, 17:18:04,VALID,918.996,VALID,0,INVALID,116.791,VALID,147.302,VALID,20.5414,VALID,262,VALID,2.57813,
2016-08-26, 17:19:04,VALID,919.083,VALID,0,INVALID,116.974,VALID,161.484,VALID,20.5235,VALID,13,VALID,1.8457,
2016-08-26, 17:20:04,VALID,919.084,VALID,0,INVALID,116.966,VALID,149.236,VALID,20.504,VALID,5,VALID,2.39063,
2016-08-26, 17:21:04,VALID,919.046,VALID,0,INVALID,117.058,VALID,218.213,VALID,20.4829,VALID,61,VALID,0.817578,
2016-08-26, 17:22:04,VALID,919.119,VALID,0,INVALID,117.088,VALID,224.23,VALID,20.4634,VALID,215,VALID,2.62891,
2016-08-26, 17:23:04,VALID,919.096,VALID,0,INVALID,117.004,VALID,206.072,VALID,20.4049,VALID,201,VALID,2.22031,
2016-08-26, 17:24:04,VALID,919.052,VALID,0,INVALID,116.524,VALID,173.195,VALID,20.3253,VALID,295,VALID,4.78359,
2016-08-26, 17:25:04,VALID,919.124,VALID,0,INVALID,116.6,VALID,154.393,VALID,20.3643,VALID,49,VALID,2.2707,
2016-08-26, 17:26:04,VALID,919.233,VALID,0,INVALID,116.859,VALID,163.848,VALID,20.3838,VALID,280,VALID,1.21797,
2016-08-26, 17:27:04,VALID,919.146,VALID,0,INVALID,116.958,VALID,201.56,VALID,20.3838,VALID,338,VALID,1.38047,
2016-08-26, 17:28:04,VALID,919.175,VALID,0,INVALID,116.661,VALID,262.264,VALID,20.2668,VALID,240,VALID,2.74219,
2016-08-26, 17:29:04,VALID,919.097,VALID,0,INVALID,116.44,VALID,312.761,VALID,20.2473,VALID,281,VALID,3.55039,
2016-08-26, 17:30:04,VALID,919.009,VALID,0,INVALID,116.737,VALID,315.232,VALID,20.3448,VALID,19,VALID,1.7207,
2016-08-26, 17:31:04,VALID,918.981,VALID,0,INVALID,115.777,VALID,321.034,VALID,20.2863,VALID,305,VALID,3.69727,
2016-08-26, 17:32:04,VALID,918.99,VALID,0,INVALID,116.31,VALID,327.588,VALID,20.4829,VALID,211,VALID,0.325,
2016-08-26, 17:33:04,VALID,918.91,VALID,0,INVALID,116.044,VALID,373.465,VALID,20.5009,VALID,20,VALID,2.86797,
2016-08-26, 17:34:04,VALID,918.944,VALID,0,INVALID,115.99,VALID,385.391,VALID,20.5594,VALID,286,VALID,0.807813,
2016-08-26, 17:35:04,VALID,918.953,VALID,0,INVALID,116.631,VALID,391.086,VALID,20.7154,VALID,251,VALID,0,
2016-08-26, 17:36:04,VALID,918.954,VALID,0,INVALID,116.92,VALID,413.541,VALID,20.8519,VALID,294,VALID,0.00429688,
2016-08-26, 17:37:04,VALID,918.964,VALID,0,INVALID,116.936,VALID,434.814,VALID,20.9495,VALID,264,VALID,0,
2016-08-26, 17:38:04,VALID,918.875,VALID,0,INVALID,115.662,VALID,461.89,VALID,20.969,VALID,210,VALID,2.64687,
2016-08-26, 17:39:04,VALID,918.999,VALID,0,INVALID,115.205,VALID,460.6,VALID,21.086,VALID,37,VALID,1.28672,
2016-08-26, 17:40:04,VALID,918.986,VALID,0,INVALID,115.083,VALID,425.574,VALID,21.1836,VALID,18,VALID,1.29297,
2016-08-26, 17:41:04,VALID,918.95,VALID,0,INVALID,114.458,VALID,463.286,VALID,21.2015,VALID,343,VALID,1.23516,
2016-08-26, 17:42:04,VALID,918.959,VALID,0,INVALID,113.65,VALID,366.697,VALID,21.2226,VALID,236,VALID,1.35742,
2016-08-26, 17:43:04,VALID,918.929,VALID,0,INVALID,112.872,VALID,292.885,VALID,21.2405,VALID,5,VALID,3.66172,
2016-08-26, 17:44:04,VALID,918.934,VALID,0,INVALID,113.154,VALID,393.02,VALID,21.3201,VALID,4,VALID,0.43125,
2016-08-26, 17:45:04,VALID,918.951,VALID,0,INVALID,113.475,VALID,415.69,VALID,21.3185,VALID,29,VALID,0.924219,
2016-08-26, 17:46:04,VALID,918.955,VALID,0,INVALID,114.145,VALID,376.044,VALID,21.416,VALID,28,VALID,0,
2016-08-26, 17:47:04,VALID,918.881,VALID,0,INVALID,113.894,VALID,299.438,VALID,21.4957,VALID,126,VALID,0,
2016-08-26, 17:48:04,VALID,918.935,VALID,0,INVALID,113.97,VALID,300.298,VALID,21.5916,VALID,71,VALID,0,
2016-08-26, 17:49:04,VALID,918.904,VALID,0,INVALID,110.379,VALID,335.109,VALID,21.5331,VALID,12,VALID,0.887109,
2016-08-26, 17:50:04,VALID,918.923,VALID,0,INVALID,110.212,VALID,385.821,VALID,21.4957,VALID,1,VALID,0,
2016-08-26, 17:51:04,VALID,918.901,VALID,0,INVALID,112.872,VALID,541.396,VALID,21.5932,VALID,360,VALID,0,
2016-08-26, 17:52:04,VALID,918.848,VALID,0,INVALID,114.473,VALID,531.834,VALID,21.7688,VALID,16,VALID,0.592188,
2016-08-26, 17:53:04,VALID,918.815,VALID,0,VALID,104,VALID,475.964,VALID,21.7493,VALID,262,VALID,1.71875,
2016-08-26, 17:54:04,VALID,918.752,VALID,0,INVALID,111.073,VALID,382.491,VALID,21.8664,VALID,239,VALID,0.000390625,
2016-08-26, 17:55:04,VALID,918.782,VALID,0,VALID,104,VALID,476.394,VALID,21.8062,VALID,204,VALID,0.0960938,
2016-08-26, 17:56:04,VALID,918.759,VALID,0,VALID,104,VALID,393.664,VALID,21.8859,VALID,17,VALID,0.0375,
2016-08-26, 17:57:04,VALID,918.781,VALID,0,INVALID,111.47,VALID,354.663,VALID,22.0225,VALID,123,VALID,0,
2016-08-26, 17:58:04,VALID,918.763,VALID,0,INVALID,111.653,VALID,475.105,VALID,22.1184,VALID,41,VALID,0,
2016-08-26, 17:59:04,VALID,918.758,VALID,0,VALID,94.8124,VALID,500.998,VALID,22.0208,VALID,258,VALID,3.76211,
2016-08-26, 18:00:04,VALID,918.709,VALID,0,VALID,103.739,VALID,458.666,VALID,22.0013,VALID,259,VALID,0.319922,
2016-08-26, 18:01:04,VALID,918.724,VALID,0,INVALID,112.491,VALID,467.584,VALID,22.1769,VALID,40,VALID,0.0195313,
2016-08-26, 18:02:04,VALID,918.731,VALID,0,INVALID,111.698,VALID,377.118,VALID,22.3508,VALID,26,VALID,1.52344,
2016-08-26, 18:03:04,VALID,918.657,VALID,0,INVALID,110.357,VALID,353.589,VALID,22.5086,VALID,208,VALID,0.813672,
2016-08-26, 18:04:04,VALID,918.668,VALID,0,VALID,89.6895,VALID,336.506,VALID,22.5086,VALID,234,VALID,0.598828,
2016-08-26, 18:05:04,VALID,918.708,VALID,0,VALID,96.5201,VALID,453.939,VALID,22.5281,VALID,331,VALID,0.246094,
2016-08-26, 18:06:04,VALID,918.647,VALID,0,VALID,87.4634,VALID,301.372,VALID,22.4289,VALID,205,VALID,0.347266,
2016-08-26, 18:07:04,VALID,918.651,VALID,0,VALID,91.0388,VALID,328.662,VALID,22.4306,VALID,212,VALID,0.09375,
2016-08-26, 18:08:04,VALID,918.636,VALID,0,VALID,87.4406,VALID,332.638,VALID,22.3916,VALID,334,VALID,1.23398,
2016-08-26, 18:09:04,VALID,918.6,VALID,0,VALID,100.759,VALID,340.374,VALID,22.3899,VALID,288,VALID,0.10625,
2016-08-26, 18:10:04,VALID,918.642,VALID,0,VALID,86.8688,VALID,238.304,VALID,22.2533,VALID,244,VALID,0.564453,
2016-08-26, 18:11:04,VALID,918.535,VALID,0,VALID,99.112,VALID,222.296,VALID,22.1752,VALID,264,VALID,0.00820312,
2016-08-26, 18:12:04,VALID,918.467,VALID,0,VALID,87.1356,VALID,269.785,VALID,22.1752,VALID,290,VALID,1.34844,
2016-08-26, 18:13:04,VALID,918.499,VALID,0,VALID,88.7671,VALID,278.702,VALID,22.1769,VALID,268,VALID,0.438281,
2016-08-26, 18:14:04,VALID,918.458,VALID,0,VALID,93.646,VALID,281.711,VALID,22.1964,VALID,53,VALID,0.0511719,
2016-08-26, 18:15:04,VALID,918.474,VALID,0,VALID,98.243,VALID,384.102,VALID,22.2354,VALID,195,VALID,1.28437,
2016-08-26, 18:16:04,VALID,918.435,VALID,0,VALID,91.8393,VALID,355.845,VALID,22.2354,VALID,248,VALID,0.432031,
2016-08-26, 18:17:04,VALID,918.38,VALID,0,VALID,85.7634,VALID,358.639,VALID,22.255,VALID,233,VALID,2.66523,
2016-08-26, 18:18:04,VALID,918.401,VALID,0,VALID,84.2921,VALID,327.696,VALID,22.1184,VALID,256,VALID,0.648047,
2016-08-26, 18:19:04,VALID,918.404,VALID,0,VALID,84.9858,VALID,267.743,VALID,22.0403,VALID,271,VALID,1.88555,
2016-08-26, 18:20:04,VALID,918.339,VALID,0,VALID,88.5536,VALID,273.867,VALID,22.0794,VALID,216,VALID,0,
2016-08-26, 18:21:04,VALID,918.325,VALID,0,VALID,86.8688,VALID,286.546,VALID,22.0989,VALID,195,VALID,1.50039,
2016-08-26, 18:22:04,VALID,918.332,VALID,0,VALID,87.2729,VALID,269.57,VALID,22.1379,VALID,185,VALID,0.000390625,
2016-08-26, 18:23:04,VALID,918.265,VALID,0,VALID,83.5374,VALID,273.115,VALID,22.0989,VALID,242,VALID,0.332422,
2016-08-26, 18:24:04,VALID,918.328,VALID,0,VALID,85.5271,VALID,270.752,VALID,22.0387,VALID,309,VALID,0.167187,
2016-08-26, 18:25:04,VALID,918.362,VALID,0,VALID,93.4783,VALID,398.714,VALID,22.0989,VALID,315,VALID,0.00507812,
2016-08-26, 18:26:04,VALID,918.301,VALID,0,VALID,103.915,VALID,667.102,VALID,22.255,VALID,20,VALID,0.0316406,
2016-08-26, 18:27:04,VALID,918.295,VALID,0,VALID,84.4598,VALID,486.171,VALID,22.3899,VALID,204,VALID,0.609766,
2016-08-26, 18:28:04,VALID,918.241,VALID,0,VALID,82.1804,VALID,505.833,VALID,22.4111,VALID,284,VALID,2.50625,
2016-08-26, 18:29:04,VALID,918.231,VALID,0,VALID,82.5159,VALID,519.156,VALID,22.3916,VALID,219,VALID,1.18281,
2016-08-26, 18:30:04,VALID,918.238,VALID,0,VALID,83.2553,VALID,507.445,VALID,22.5281,VALID,324,VALID,0.732031,
2016-08-26, 18:31:04,VALID,918.24,VALID,0,VALID,80.5185,VALID,361.969,VALID,22.5867,VALID,310,VALID,0.524609,
2016-08-26, 18:32:04,VALID,918.224,VALID,0,VALID,81.1741,VALID,1004.15,VALID,22.585,VALID,215,VALID,0,
2016-08-26, 18:33:04,VALID,918.188,VALID,0,VALID,81.2427,VALID,1029.82,VALID,22.7216,VALID,248,VALID,0.890234,
2016-08-26, 18:34:04,VALID,918.13,VALID,0,VALID,77.7055,VALID,293.099,VALID,22.9185,VALID,290,VALID,1.58672,
2016-08-26, 18:35:04,VALID,918.073,VALID,0,VALID,79.9849,VALID,318.241,VALID,23.0321,VALID,207,VALID,1.67695,
2016-08-26, 18:36:04,VALID,918.122,VALID,0,VALID,78.0104,VALID,271.934,VALID,23.1509,VALID,244,VALID,1.02813,
2016-08-26, 18:37:04,VALID,918.085,VALID,0,VALID,77.4005,VALID,764.121,VALID,22.9753,VALID,270,VALID,1.18555,
2016-08-26, 18:38:04,VALID,918.054,VALID,0,VALID,77.6979,VALID,477.039,VALID,23.0338,VALID,230,VALID,0.312891,
2016-08-26, 18:39:04,VALID,917.991,VALID,0,VALID,77.9952,VALID,567.612,VALID,22.9753,VALID,246,VALID,2.03086,
2016-08-26, 18:40:04,VALID,918.022,VALID,0,VALID,80.0306,VALID,346.713,VALID,22.9948,VALID,283,VALID,0.0148437,
2016-08-26, 18:41:04,VALID,918.006,VALID,0,VALID,79.6876,VALID,575.67,VALID,23.1314,VALID,285,VALID,0,
2016-08-26, 18:42:04,VALID,918.027,VALID,0,VALID,76.8135,VALID,566.215,VALID,23.1899,VALID,195,VALID,0.841797,